Weather History for Eveleth, MN

Change the Weather History Date:

Wednesday, October 9, 2013

  Actual Average Record
Temperature  
Mean Temperature 56 °F -  
Max Temperature 71 °F 54 °F 78 °F (2003)
Min Temperature 42 °F 33 °F 17 °F (2000)
Degree Days  
Heating Degree Days 8    
Growing Degree Days 6 (Base 50)    
Moisture  
Dew Point 46 °F    
Average Humidity 69    
Maximum Humidity 100    
Minimum Humidity 46    
Precipitation  
Precipitation 0.00 in - - ()
Sea Level Pressure  
Sea Level Pressure 29.97 in    
Wind  
Wind Speed 6 mph (SSW)    
Max Wind Speed 12 mph    
Max Gust Speed 17 mph    
Visibility 10 miles    
Events      
Averages and records for this station are not official NWS values.
T = Trace of Precipitation, MM = Missing Value Source: NWS Daily Summary

Daily Weather History Graph

Daily Weather History Graph

Search for Another Location

Airport:

Trip Planner

Search our weather history database for the weather conditions in past years. The results will help you decide how hot, cold, wet, or windy it might be!

Date:

Astronomy

Oct. 09, 2013 Rise Set
Actual Time 7:20 AM CDT 6:33 PM CDT
Civil Twilight 6:49 AM CDT 7:03 PM CDT
Nautical Twilight 6:14 AM CDT 7:39 PM CDT
Astronomical Twilight 5:38 AM CDT 8:14 PM CDT
Moon 12:32 PM CDT (10/9) 9:51 PM CDT (10/9)
Length of Visible Light 12h 14m
Length of Day
11h 12m
Waxing Crescent, 25% of the Moon is Illuminated
Oct 9
Waxing Crescent
Oct 11
First Quarter
Oct 18
Full
Oct 26
Last Quarter
Nov 3
New

Hourly Weather History & Observations

Time (CDT) Temp. Dew Point Humidity Pressure Visibility Wind Dir Wind Speed Gust Speed Precip Events Conditions
12:06 AM 59.0 °F 42.8 °F 55% 29.85 in 10.0 mi SSW 8.1 mph - N/A   Clear
12:27 AM 59.0 °F 42.8 °F 55% 29.86 in 10.0 mi SSW 10.4 mph 17.3 mph N/A   Clear
12:47 AM 59.0 °F 42.8 °F 55% 29.86 in 10.0 mi SSW 10.4 mph - N/A   Clear
1:06 AM 59.0 °F 42.8 °F 55% 29.86 in 10.0 mi SSW 9.2 mph - N/A   Clear
1:27 AM 59.0 °F 44.6 °F 59% 29.87 in 10.0 mi SSW 8.1 mph - N/A   Clear
1:47 AM 59.0 °F 44.6 °F 59% 29.88 in 10.0 mi SSW 8.1 mph - N/A   Clear
2:06 AM 59.0 °F 42.8 °F 55% 29.88 in 10.0 mi SSW 8.1 mph - N/A   Clear
2:27 AM - - N/A% 2.96 in 10.0 mi SSW 8.1 mph - N/A   Clear
2:47 AM 57.2 °F 44.6 °F 63% 29.89 in 10.0 mi SSW 8.1 mph - N/A   Clear
3:06 AM 57.2 °F 44.6 °F 63% 29.89 in 10.0 mi SSW 6.9 mph - N/A   Clear
3:27 AM 57.2 °F 44.6 °F 63% 29.89 in 10.0 mi SSW 5.8 mph - N/A   Clear
3:47 AM 55.4 °F 44.6 °F 67% 29.90 in 10.0 mi SSW 5.8 mph - N/A   Clear
4:06 AM 53.6 °F 44.6 °F 72% 29.91 in 10.0 mi SSW 5.8 mph - N/A   Clear
4:27 AM 53.6 °F 42.8 °F 67% 29.91 in 10.0 mi SSW 5.8 mph - N/A   Clear
4:47 AM 53.6 °F 42.8 °F 67% 29.91 in 10.0 mi SSW 3.5 mph - N/A   Clear
5:06 AM 51.8 °F 42.8 °F 71% 29.92 in 10.0 mi Calm Calm - N/A   Clear
5:27 AM 50.0 °F 42.8 °F 76% 29.92 in 10.0 mi Calm Calm - N/A   Clear
5:46 AM 44.6 °F 42.8 °F 93% 29.93 in 10.0 mi Calm Calm - N/A   Clear
6:07 AM 44.6 °F 42.8 °F 93% 29.93 in 10.0 mi Calm Calm - N/A   Clear
6:27 AM 44.6 °F 42.8 °F 93% 29.93 in 10.0 mi Calm Calm - N/A   Clear
6:46 AM 44.6 °F 42.8 °F 93% 29.94 in 10.0 mi Calm Calm - N/A   Clear
7:07 AM 42.8 °F 41.0 °F 93% 29.94 in 10.0 mi Calm Calm - N/A   Clear
7:27 AM 42.8 °F 41.0 °F 93% 29.95 in 10.0 mi Calm Calm - N/A   Clear
7:46 AM 44.6 °F 42.8 °F 93% 29.95 in 10.0 mi Calm Calm - N/A   Clear
8:07 AM 44.6 °F 44.6 °F 100% 29.96 in 10.0 mi Calm Calm - N/A   Clear
8:27 AM 50.0 °F 46.4 °F 87% 29.96 in 10.0 mi Calm Calm - N/A   Clear
8:46 AM 51.8 °F 44.6 °F 76% 29.97 in 10.0 mi Calm Calm - N/A   Clear
9:07 AM 53.6 °F 46.4 °F 77% 29.98 in 10.0 mi SSW 4.6 mph - N/A   Clear
9:27 AM 57.2 °F 46.4 °F 67% 29.98 in 10.0 mi SSW 6.9 mph - N/A   Clear
9:46 AM 57.2 °F 46.4 °F 67% 29.98 in 10.0 mi SSW 9.2 mph - N/A   Clear
10:07 AM 59.0 °F 46.4 °F 63% 29.98 in 10.0 mi SW 10.4 mph - N/A   Clear
10:27 AM 60.8 °F 46.4 °F 59% 29.99 in 10.0 mi SW 8.1 mph - N/A   Clear
11:07 AM 62.6 °F 46.4 °F 55% 29.99 in 10.0 mi SW 8.1 mph - N/A   Clear
11:26 AM 62.6 °F 46.4 °F 55% 29.99 in 10.0 mi SW 9.2 mph - N/A   Clear
11:47 AM 62.6 °F 46.4 °F 55% 29.99 in 10.0 mi WSW 5.8 mph - N/A   Clear
12:06 PM 62.6 °F 46.4 °F 55% 30.00 in 10.0 mi WSW 6.9 mph - N/A   Clear
12:27 PM 64.4 °F 46.4 °F 52% 29.99 in 10.0 mi West 5.8 mph - N/A   Clear
12:47 PM 64.4 °F 46.4 °F 52% 30.00 in 10.0 mi South 8.1 mph - N/A   Clear
1:07 PM 68.0 °F 46.4 °F 46% 29.99 in 10.0 mi South 6.9 mph - N/A   Clear
1:27 PM 68.0 °F 46.4 °F 46% 29.99 in 10.0 mi SSW 5.8 mph - N/A   Clear
1:46 PM 69.8 °F 50.0 °F 49% 29.99 in 10.0 mi South 11.5 mph - N/A   Clear
2:07 PM 69.8 °F 50.0 °F 49% 29.99 in 10.0 mi South 10.4 mph - N/A   Clear
2:26 PM 71.6 °F 50.0 °F 46% 29.98 in 10.0 mi South 10.4 mph - N/A   Clear
2:47 PM 71.6 °F 50.0 °F 46% 29.98 in 10.0 mi South 11.5 mph - N/A   Clear
3:07 PM 71.6 °F 50.0 °F 46% 29.99 in 10.0 mi South 11.5 mph - N/A   Clear
3:26 PM 71.6 °F 50.0 °F 46% 29.99 in 10.0 mi SSW 10.4 mph - N/A   Clear
3:47 PM 71.6 °F 50.0 °F 46% 29.99 in 10.0 mi South 11.5 mph - N/A   Clear
4:07 PM 71.6 °F 50.0 °F 46% 30.00 in 10.0 mi SSW 8.1 mph - N/A   Clear
4:26 PM 71.6 °F 50.0 °F 46% 30.00 in 10.0 mi SSW 10.4 mph - N/A   Clear
4:47 PM 71.6 °F 50.0 °F 46% 30.00 in 10.0 mi SW 9.2 mph - N/A   Clear
5:07 PM 69.8 °F 48.2 °F 46% 30.00 in 10.0 mi SW 10.4 mph - N/A   Clear
5:25 PM 68.0 °F 48.2 °F 49% 30.00 in 10.0 mi SW 4.6 mph - N/A   Clear
5:47 PM 66.2 °F 48.2 °F 52% 30.01 in 10.0 mi SW 4.6 mph - N/A   Clear
6:06 PM 64.4 °F 50.0 °F 59% 30.01 in 10.0 mi Calm Calm - N/A   Clear
6:27 PM 62.6 °F 50.0 °F 63% 30.02 in 10.0 mi Calm Calm - N/A   Clear
6:47 PM 59.0 °F 50.0 °F 72% 30.02 in 10.0 mi Calm Calm - N/A   Clear
7:06 PM 57.2 °F 50.0 °F 77% 30.02 in 10.0 mi Calm Calm - N/A   Clear
7:27 PM 53.6 °F 50.0 °F 88% 30.03 in 10.0 mi Calm Calm - N/A   Clear
7:47 PM 53.6 °F 50.0 °F 88% 30.03 in 10.0 mi Calm Calm - N/A   Clear
8:06 PM 51.8 °F 50.0 °F 94% 30.03 in 10.0 mi Calm Calm - N/A   Clear
8:27 PM 51.8 °F 50.0 °F 94% 30.04 in 10.0 mi Calm Calm - N/A   Clear
8:47 PM - - N/A% 3.06 in 10.0 mi Calm Calm - N/A   Clear
9:06 PM 50.0 °F 46.4 °F 87% 30.04 in 10.0 mi Calm Calm - N/A   Clear
9:27 PM 50.0 °F 48.2 °F 94% 30.04 in 10.0 mi Calm Calm - N/A   Clear
9:47 PM 48.2 °F 46.4 °F 93% 30.04 in 10.0 mi Calm Calm - N/A   Clear
10:06 PM 50.0 °F 48.2 °F 94% 30.04 in 10.0 mi Calm Calm - N/A   Clear
10:27 PM 48.2 °F 46.4 °F 93% 30.04 in 10.0 mi Calm Calm - N/A   Clear
10:47 PM 46.4 °F 44.6 °F 93% 30.05 in 10.0 mi Calm Calm - N/A   Clear
11:06 PM 44.6 °F 42.8 °F 93% 30.05 in 10.0 mi Calm Calm - N/A   Clear
11:27 PM 44.6 °F 44.6 °F 100% 30.05 in 10.0 mi Calm Calm - N/A   Clear
11:47 PM 44.6 °F 44.6 °F 100% 30.05 in 10.0 mi Calm Calm - N/A   Clear